{"data":{"norad_id":68674,"intl_designator":"2026-077N","name":"STARLINK-36672","alt_names":[],"object_type":"PAYLOAD","status":"ACTIVE","operator":null,"country":"US","launch_date":"2026-04-11","launch_site_code":"AFWTR","launch_vehicle":null,"mission":null,"orbit_class":"UNKNOWN","rcs_meters":null,"size_class":null,"mass_kg":null,"dimensions":null,"purposes":["comms"],"wikipedia_slug":null,"has_3d_model":false,"image_url":null,"decayed_at":null,"tle_current":{"epoch":"2026-09-20T02:43:03.312192Z","epoch_age_seconds":77396,"freshness":"FRESH","line1":"1 68674U 26077N   26263.11323278  .00009562  00000+0  29812-3 0  9995","line2":"2 68674  97.2863 133.0127 0001925  99.6708 260.4753 15.33445939 24954","mean_motion":15.33445939,"eccentricity":0.0001925,"inclination_deg":97.2863,"raan_deg":133.0127,"arg_perigee_deg":99.6708,"mean_anomaly_deg":260.4753,"bstar":0.00029812,"rev_number":2495,"period_min":93.906147153715,"perigee_km":464.22297278042,"apogee_km":466.85778857198,"semimajor_km":6843.6773806762,"source":"CELESTRAK","updated_at":"2026-09-20T09:00:43.952114Z"}}}